Wind_Speed
40 41 38 37 30 23 22 21 25 24 22 22 23 26 23 21 20 19 17 15 17 16 15 15 15 14 15 14 14 14 15 16 12 21 22 22 22 20 17 18 18 20 19
38 39 40 38 36 30 27 24 24 27 24 23 20 23 28 25 22 23 22 20 19 20 19 19 21 18 19 18 18 19 21 21 21 22 27 26 25 25 21 19 20 22 21
31 34 37 38 38 38 33 30 26 25 24 22 21 20 25 28 26 25 24 24 24 23 23 23 23 23 24 24 24 25 26 27 26 27 25 28 29 28 28 24 22 21 21
30 34 36 40 41 43 41 36 34 30 28 25 24 24 25 28 29 28 27 27 27 28 28 27 27 27 28 27 27 27 26 27 27 28 27 27 26 26 25 24 22 20 19
27 30 35 40 41 41 42 44 40 37 37 35 30 28 28 30 32 32 31 30 30 31 31 31 31 31 31 31 31 32 29 29 26 21 19 19 21 22 23 20 16 15 15
33 29 29 29 34 39 39 40 44 44 43 41 40 38 33 33 35 35 35 35 34 34 35 36 36 34 35 34 33 31 30 31 29 21 23 20 25 25 29 27 19 8 4
38 36 29 31 34 37 39 37 39 42 43 43 44 44 45 44 40 39 37 37 37 38 38 39 39 38 37 37 35 34 34 32 30 30 30 31 26 31 28 26 21 16 10
24 29 30 31 34 34 32 36 39 39 39 42 42 43 43 44 48 47 44 40 40 41 41 42 41 43 42 40 38 39 40 39 38 34 31 30 27 23 24 25 21 14 9
6 10 20 27 32 31 31 35 40 33 34 38 41 41 43 45 44 44 44 43 42 43 43 43 43 44 45 43 41 41 39 40 36 32 28 25 22 18 21 20 17 11 6
9 7 8 14 19 27 33 36 36 33 35 35 35 38 41 42 41 41 40 38 33 37 41 42 42 42 41 40 38 36 32 37 31 27 26 22 19 19 19 18 19 17 7
13 11 10 9 12 21 31 33 31 31 31 30 31 35 37 40 42 40 39 37 36 33 31 34 38 40 40 38 34 32 33 31 29 27 25 21 20 18 18 18 18 16 10
16 14 14 12 12 15 22 33 36 30 29 30 30 30 31 36 40 41 39 38 38 36 34 33 35 39 38 37 35 33 31 29 28 26 22 22 19 16 16 16 15 14 11
18 16 17 15 14 16 14 24 26 30 31 28 26 30 28 29 34 38 39 38 37 39 41 41 40 39 37 36 35 35 33 30 26 24 27 24 18 12 12 13 14 14 12
19 18 18 19 19 16 15 11 21 24 26 27 25 25 27 29 29 28 32 34 35 37 38 40 41 41 40 39 41 40 37 33 29 29 28 22 14 11 12 12 12 14 12
18 18 19 18 18 18 17 13 9 19 25 24 26 27 24 24 29 34 32 29 32 33 31 29 28 26 24 24 27 30 30 30 31 32 26 20 13 10 11 11 12 12 13
14 18 18 18 19 18 21 20 12 9 11 20 27 29 30 29 27 25 25 29 28 29 24 22 22 22 21 8 11 24 31 28 26 25 24 20 16 13 13 13 13 14 16
15 15 18 19 16 18 17 17 18 17 10 8 13 20 27 31 31 33 31 30 27 26 24 25 28 25 21 17 17 23 31 29 20 19 19 21 17 15 15 14 15 16 17
10 12 12 15 16 15 16 17 16 17 16 15 12 10 9 13 20 25 27 27 24 22 20 20 25 25 27 29 27 25 24 22 20 17 17 19 19 17 16 16 18 19 16
12 13 12 11 15 13 13 15 16 16 16 18 19 13 12 11 12 13 12 22 19 23 28 26 28 28 28 26 30 30 28 22 20 17 16 17 18 18 18 17 18 18 17
13 9 10 11 12 16 16 16 16 15 14 14 16 22 21 9 9 10 8 8 13 9 8 12 14 17 20 20 25 22 17 20 18 18 21 21 22 21 20 17 17 19 20
10 12 11 10 11 12 15 17 16 15 15 15 16 18 14 11 11 10 11 13 11 10 7 6 7 6 9 8 13 15 16 25 18 18 19 20 19 18 17 15 16 16 18
6 9 11 11 11 12 11 11 14 17 17 18 17 16 17 15 14 13 13 13 13 12 11 8 8 10 11 11 8 3 3 8 10 12 13 13 13 14 14 19 17 16 18
3 4 6 9 11 10 10 11 12 11 16 17 19 20 20 18 16 14 13 12 12 13 13 13 14 14 12 10 8 8 6 6 7 10 12 11 11 14 17 21 18 18 20
1 2 4 6 8 8 9 9 10 9 9 11 14 16 19 19 20 19 17 15 14 14 15 16 16 16 15 14 12 8 4 3 3 7 9 10 12 13 16 16 16 18 20
2 3 5 5 7 7 5 7 9 7 6 6 7 10 12 13 16 17 17 17 17 17 17 19 19 17 17 15 14 12 11 5 9 8 8 8 6 8 15 16 16 17 20
4 4 4 4 4 7 4 6 7 7 5 4 4 3 5 7 8 10 11 13 15 17 18 19 20 20 19 19 17 14 9 7 5 3 5 7 9 10 14 18 16 18 22
Wind_Direction
211 216 216 215 216 213 213 215 221 227 231 237 242 239 237 240 242 242 244 247 252 258 256 260 266 268 268 269 272 270 267 260 245 280 294 306 309 306 301 282 269 266 270
208 215 218 219 217 214 213 218 221 227 234 235 254 245 235 239 241 243 249 252 256 260 268 267 268 269 269 273 273 274 275 273 264 271 289 296 300 305 306 288 271 270 269
208 212 219 220 222 223 221 220 221 223 228 234 239 245 232 237 242 244 248 254 259 266 271 273 275 274 275 276 276 275 278 280 279 275 281 291 293 296 297 293 281 278 264
208 211 216 221 225 228 229 227 226 229 232 233 238 241 240 239 243 246 249 254 260 264 269 272 275 277 280 283 284 283 284 284 284 283 281 284 292 300 297 291 285 279 271
209 213 218 223 225 229 231 233 232 232 236 239 241 243 245 245 245 247 250 254 258 263 268 271 274 277 280 283 283 286 289 289 285 277 274 286 291 288 289 298 279 287 280
214 224 223 224 225 229 233 236 238 237 238 241 243 244 244 247 248 249 253 257 260 264 269 275 278 280 283 285 286 285 284 284 281 273 277 281 282 277 291 287 272 261 268
216 228 224 223 225 229 233 232 237 241 242 242 245 247 248 250 252 253 254 256 261 266 271 276 280 283 288 291 293 294 294 292 286 282 278 282 281 290 292 284 264 251 236
218 218 218 220 225 228 227 231 237 238 239 243 245 246 250 253 254 255 257 258 262 265 269 274 278 282 284 285 288 291 293 296 295 294 290 294 296 296 284 280 278 257 237
66 222 228 227 225 225 225 229 234 233 235 239 244 247 248 252 255 257 260 258 260 265 269 272 273 277 282 283 284 285 289 293 296 298 300 301 299 288 278 270 243 197 207
0 334 289 241 233 234 230 231 234 231 235 238 239 242 249 254 258 259 260 256 253 261 269 273 275 277 282 285 282 283 279 290 300 302 298 298 295 289 275 264 255 215 176
346 341 327 303 268 251 245 240 236 233 234 237 240 242 244 250 258 261 262 258 253 254 255 263 269 277 283 286 285 280 281 295 295 293 293 292 299 295 274 253 251 250 210
346 353 348 338 319 298 260 238 235 233 234 233 234 240 242 248 254 260 262 260 261 252 253 258 265 274 278 282 282 284 287 287 285 280 276 285 293 290 273 255 244 224 245
356 345 351 344 339 335 287 244 233 232 228 233 231 239 240 244 248 255 260 261 261 255 258 262 266 269 273 276 278 282 283 274 270 261 267 279 289 285 271 248 229 229 236
11 354 347 347 348 347 348 271 240 229 227 232 231 234 238 236 239 242 250 255 256 255 258 262 264 267 270 277 280 280 276 273 262 260 269 278 273 255 247 234 225 224 226
21 3 360 355 352 343 337 324 310 255 240 233 235 235 234 240 241 249 248 246 255 262 268 265 267 272 275 290 296 291 281 272 260 261 260 266 248 232 230 229 223 209 203
23 12 10 2 358 350 341 328 316 301 273 253 252 255 260 260 257 258 258 255 259 260 254 249 254 256 251 207 308 311 287 276 270 263 256 245 232 223 221 213 214 208 203
16 17 18 23 1 356 344 335 331 327 333 312 275 261 259 265 268 272 267 264 263 260 245 240 240 235 234 257 262 257 251 272 277 258 240 231 224 220 213 212 213 211 210
2 6 18 20 19 8 359 348 344 334 332 334 326 317 301 282 270 268 264 263 239 220 226 231 238 239 248 259 253 260 264 258 243 230 228 227 220 216 209 216 217 211 206
8 354 2 13 21 19 18 10 2 357 350 350 342 335 327 318 336 333 264 232 252 245 246 252 255 260 263 265 268 265 254 246 232 221 218 219 219 212 216 217 219 214 208
12 359 7 14 21 27 26 27 20 7 2 6 6 2 346 356 9 9 348 296 269 277 276 279 280 276 269 263 261 253 267 253 234 217 210 210 212 209 214 215 211 206 203
8 5 9 13 16 22 28 29 28 26 15 10 8 5 16 35 42 60 53 41 37 33 24 21 6 352 328 314 276 240 232 240 229 219 209 198 202 205 214 213 209 208 202
2 11 20 15 11 12 8 26 31 32 30 24 20 19 23 33 36 47 51 45 43 47 49 51 51 37 30 34 40 26 235 233 211 210 207 200 205 211 215 210 194 193 199
335 349 4 15 17 11 13 14 21 27 33 36 35 36 35 33 29 33 40 43 41 45 45 44 42 42 34 30 40 49 21 333 284 240 204 192 203 222 211 214 187 185 196
36 331 336 353 5 3 4 357 4 16 27 42 45 44 45 43 43 40 42 44 46 51 51 46 42 39 36 32 27 24 352 273 228 234 228 210 185 215 221 212 198 193 199
285 336 349 339 355 348 336 358 4 1 8 27 44 54 54 51 50 46 45 49 51 51 52 49 45 41 36 31 28 24 13 312 231 223 227 236 228 216 230 219 201 194 197
357 301 313 316 358 9 343 307 323 333 338 342 350 28 42 53 58 55 58 57 55 55 51 48 44 43 42 36 26 12 359 358 10 313 274 272 270 261 247 232 207 195 196
Height
799 804 808 810 816 820 821 822 825 829 832 834 835 836 838 840 842 843 844 845 845 846 845 844 844 844 843 843 843 842 841 840 838 832 831 830 828 826 824 821 821 819 819
794 800 804 808 812 816 817 820 821 824 828 830 831 832 834 836 838 840 841 842 842 842 842 842 841 842 841 840 840 839 837 836 834 828 827 826 825 823 821 818 816 815 815
793 796 800 804 807 811 813 816 818 820 823 826 828 828 830 833 834 835 836 837 838 838 839 839 839 839 837 836 835 834 833 831 829 826 823 823 821 819 816 813 812 810 809
787 791 794 797 800 804 809 811 814 816 818 820 823 825 826 828 830 831 832 832 833 833 834 834 834 834 833 832 830 829 827 825 824 823 820 817 816 813 811 808 806 804 804
783 787 788 791 795 799 803 805 808 810 812 814 817 819 822 824 825 826 827 828 827 828 828 828 828 827 826 826 825 822 822 820 819 818 815 813 811 808 805 802 801 800 799
783 780 785 789 791 792 796 798 802 803 806 808 809 812 815 817 818 820 822 822 823 823 822 821 821 820 819 819 818 818 818 816 813 813 809 808 804 802 799 797 797 796 798
774 776 780 783 785 787 789 793 794 797 799 801 803 805 806 807 810 813 815 816 817 816 816 815 814 813 812 811 811 811 810 810 809 808 804 800 797 796 794 791 791 791 791
769 772 774 775 777 781 784 786 787 789 792 793 795 796 798 799 801 803 806 809 809 809 809 808 808 805 805 805 805 803 801 800 799 798 796 793 791 788 787 786 786 786 788
766 768 768 771 770 773 775 777 778 782 784 785 786 788 789 790 791 793 797 799 800 800 800 800 800 798 796 797 798 795 794 791 790 788 786 784 783 782 781 781 781 782 784
764 764 765 765 765 766 766 768 770 774 776 777 778 779 780 781 783 785 788 791 792 792 791 791 789 789 788 788 789 788 786 783 783 781 779 778 777 775 775 775 776 777 779
764 760 760 758 758 759 762 762 765 768 769 771 772 771 772 773 775 777 780 782 783 783 782 781 780 779 779 779 781 781 779 778 777 775 773 772 771 770 769 770 772 773 775
760 757 755 755 754 752 751 753 755 761 762 762 761 763 764 765 766 768 770 772 773 774 772 772 771 771 771 771 772 772 773 773 771 770 768 766 766 766 765 766 768 770 771
759 757 755 752 750 748 744 746 748 750 753 753 754 757 755 758 758 757 759 761 763 765 763 762 762 763 765 765 766 766 766 765 764 763 761 761 762 762 762 762 764 767 769
760 758 754 750 747 745 743 741 743 744 745 747 746 746 747 747 748 749 751 752 754 755 754 754 755 756 758 758 759 756 757 757 756 756 756 756 757 757 759 759 761 763 766
761 761 757 752 747 745 743 742 739 738 738 738 738 739 740 740 740 741 743 744 745 745 746 747 748 749 748 748 749 748 747 748 750 749 750 752 751 752 755 756 756 759 762
762 761 756 753 749 746 744 739 737 734 732 731 732 733 733 733 735 736 737 738 739 739 739 740 740 740 737 725 737 741 746 741 739 741 743 745 746 747 750 751 752 754 758
762 760 757 751 750 747 746 742 734 731 729 726 726 726 726 726 727 728 728 729 729 730 730 730 728 729 728 726 721 727 731 732 733 735 736 738 739 742 746 746 748 750 753
767 763 759 754 751 750 746 742 738 734 729 725 723 722 720 718 718 717 718 720 720 721 721 722 722 721 720 719 721 721 720 723 726 724 727 730 734 737 740 742 745 746 748
763 764 759 755 752 750 746 742 738 735 733 729 725 720 719 716 714 713 712 714 714 713 714 715 715 716 717 716 716 717 717 717 716 715 719 724 728 731 733 734 738 742 744
764 765 760 756 753 750 747 741 738 737 736 733 730 726 720 715 713 713 714 713 712 712 713 713 712 713 712 709 709 711 712 713 711 708 708 713 720 722 725 730 733 736 739
765 764 759 757 754 750 747 743 741 738 737 735 731 729 725 719 717 715 716 715 713 711 711 710 711 712 710 704 705 702 701 708 707 710 710 712 716 719 723 725 729 734 736
763 762 758 756 753 751 749 744 742 740 738 736 733 730 726 723 721 719 718 719 718 715 713 713 711 711 710 709 706 706 707 709 708 711 712 713 716 719 721 725 725 728 733
762 761 759 757 755 752 750 748 744 742 739 738 736 733 729 728 726 725 724 722 721 718 717 715 713 711 712 712 711 707 708 710 711 713 711 711 714 721 722 727 718 723 730
759 758 757 756 755 753 751 749 746 744 742 740 739 737 735 733 731 729 725 724 723 721 720 718 717 715 714 713 712 710 709 711 712 714 715 715 709 715 721 721 719 719 726
759 758 756 755 754 753 751 750 748 746 745 743 742 740 739 737 735 733 731 729 728 726 724 722 721 719 716 716 715 713 713 712 712 713 714 715 713 712 718 718 715 717 723
757 757 758 756 754 752 751 750 749 748 747 745 743 742 740 739 738 737 735 734 732 730 728 726 725 723 721 719 718 717 717 714 713 713 713 713 713 714 717 718 715 715 719